Location: Bennemühlen
(52.5740°N, 9.7135°E)
Time: 07:34:27
(UTC+00:00)

Landsat 5 - Pass Details

Date: 19 May 2025
Orbit: 510 x 610 km, 98.1° (Epoch: 22 June)

Event Time Altitude Azimuth Distance (km) Brightness Sun altitude
Rises 21:52:43 0° 21° (NNE) 2,811 7.7 -15.1°
Reaches altitude 10° 21:55:00 10° 30° (NNE) 1,922 6.6 -15.3°
Maximum altitude 21:58:52 35° 97° (E) 965 4.3 -15.5°
Enters shadow 22:00:27 26° 140° (SE) 1,186 4.5 -15.5°
